TimeEDT,TemperatureF,Dew PointF,Humidity,Sea Level PressureIn,VisibilityMPH,Wind Direction,Wind SpeedMPH,Gust SpeedMPH,PrecipitationIn,Events,Conditions,WindDirDegrees,DateUTC
12:15 AM,37.4,30.2,75,30.13,10.0,Calm,Calm,-,N/A,,Clear,0,2013-10-28 04:15:00
12:35 AM,35.6,30.2,81,30.14,10.0,Calm,Calm,-,N/A,,Clear,0,2013-10-28 04:35:00
12:55 AM,35.6,30.2,81,30.14,10.0,Calm,Calm,-,N/A,,Clear,0,2013-10-28 04:55:00
1:15 AM,33.8,30.2,87,30.14,10.0,Calm,Calm,-,N/A,,Clear,0,2013-10-28 05:15:00
1:35 AM,32.0,28.4,87,30.15,10.0,Calm,Calm,-,N/A,,Clear,0,2013-10-28 05:35:00
1:55 AM,32.0,30.2,93,30.15,10.0,Calm,Calm,-,N/A,,Clear,0,2013-10-28 05:55:00
2:15 AM,32.0,28.4,87,30.14,10.0,Calm,Calm,-,N/A,,Clear,0,2013-10-28 06:15:00
2:35 AM,32.0,28.4,87,30.14,10.0,Calm,Calm,-,N/A,,Clear,0,2013-10-28 06:35:00
2:55 AM,32.0,28.4,87,30.14,10.0,Calm,Calm,-,N/A,,Clear,0,2013-10-28 06:55:00
3:15 AM,32.0,30.2,93,30.15,10.0,Calm,Calm,-,N/A,,Clear,0,2013-10-28 07:15:00
3:35 AM,32.0,28.4,87,30.15,10.0,Calm,Calm,-,N/A,,Clear,0,2013-10-28 07:35:00
3:55 AM,32.0,28.4,87,30.15,10.0,Calm,Calm,-,N/A,,Clear,0,2013-10-28 07:55:00
4:15 AM,30.2,28.4,93,30.16,10.0,Calm,Calm,-,N/A,,Clear,0,2013-10-28 08:15:00
4:35 AM,30.2,26.6,86,30.16,10.0,Calm,Calm,-,N/A,,Clear,0,2013-10-28 08:35:00
4:55 AM,30.2,26.6,86,30.16,10.0,Calm,Calm,-,N/A,,Clear,0,2013-10-28 08:55:00
5:15 AM,30.2,28.4,93,30.16,10.0,Calm,Calm,-,N/A,,Clear,0,2013-10-28 09:15:00
5:35 AM,30.2,28.4,93,30.16,10.0,Calm,Calm,-,N/A,,Clear,0,2013-10-28 09:35:00
5:55 AM,30.2,26.6,86,30.17,10.0,Calm,Calm,-,N/A,,Clear,0,2013-10-28 09:55:00
6:15 AM,30.2,26.6,86,30.17,10.0,Calm,Calm,-,N/A,,Clear,0,2013-10-28 10:15:00
6:35 AM,28.4,26.6,93,30.18,10.0,Calm,Calm,-,N/A,,Clear,0,2013-10-28 10:35:00
6:45 AM,28.4,26.6,93,30.18,10.0,Calm,Calm,-,N/A,,Clear,0,2013-10-28 10:45:00
7:45 AM,28.4,26.6,93,30.21,10.0,Calm,Calm,-,N/A,,Clear,0,2013-10-28 11:45:00
8:45 AM,35.6,32.0,87,30.23,15.0,Calm,Calm,-,N/A,,Clear,0,2013-10-28 12:45:00
9:45 AM,46.4,33.8,62,30.24,15.0,Calm,Calm,-,N/A,,Clear,0,2013-10-28 13:45:00
10:45 AM,55.4,30.2,38,30.24,10.0,West,11.5,20.7,N/A,,Partly Cloudy,260,2013-10-28 14:45:00
11:45 AM,57.2,30.2,36,30.23,10.0,West,13.8,21.9,N/A,,Clear,270,2013-10-28 15:45:00
12:45 PM,59.0,30.2,34,30.21,10.0,West,12.7,20.7,N/A,,Clear,270,2013-10-28 16:45:00
1:45 PM,60.8,32.0,34,30.19,15.0,West,9.2,18.4,N/A,,Clear,280,2013-10-28 17:45:00
2:45 PM,60.8,32.0,34,30.19,10.0,West,10.4,18.4,N/A,,Clear,270,2013-10-28 18:45:00
3:45 PM,60.8,32.0,34,30.19,10.0,WSW,9.2,-,N/A,,Clear,250,2013-10-28 19:45:00
4:45 PM,59.0,32.0,36,30.20,10.0,West,8.1,-,N/A,,Mostly Cloudy,270,2013-10-28 20:45:00
5:45 PM,57.2,32.0,38,30.21,20.0,SSW,3.5,-,N/A,,Mostly Cloudy,210,2013-10-28 21:45:00
6:45 PM,48.2,33.8,58,30.24,10.0,Calm,Calm,-,N/A,,Clear,0,2013-10-28 22:45:00
7:45 PM,42.8,33.8,70,30.27,10.0,Calm,Calm,-,N/A,,Clear,0,2013-10-28 23:45:00
8:45 PM,41.0,35.6,81,30.29,10.0,Calm,Calm,-,N/A,,Clear,0,2013-10-29 00:45:00
9:45 PM,42.8,35.6,76,30.30,10.0,Calm,Calm,-,N/A,,Clear,0,2013-10-29 01:45:00
10:55 PM,37.4,33.8,87,30.31,10.0,Calm,Calm,-,N/A,,Clear,0,2013-10-29 02:55:00
11:15 PM,39.2,33.8,81,30.31,10.0,Calm,Calm,-,N/A,,Clear,0,2013-10-29 03:15:00
11:35 PM,37.4,32.0,81,30.32,10.0,Calm,Calm,-,N/A,,Clear,0,2013-10-29 03:35:00
11:55 PM,37.4,33.8,87,30.32,10.0,Calm,Calm,-,N/A,,Clear,0,2013-10-29 03:55:00